[Iaude] MPEC T50: 2023 TE1 [a=1.06,e=0.59,i=22.7,H=24.6]
    mpec at marsden.cfa.harvard.edu 
    mpec at marsden.cfa.harvard.edu
       
    Fri Oct  6 18:37:53 EDT 2023
    
    
  
M.P.E.C. 2023-T50                               Issued 2023 October 6, 22:36 UT
     The Minor Planet Electronic Circulars contain information on unusual
         minor planets, routine data on comets and natural satellites,
         and occasional editorial announcements.  They are published
    on behalf of Division F of the International Astronomical Union by the
          Minor Planet Center, Smithsonian Astrophysical Observatory,
                          Cambridge, MA 02138, U.S.A.
			  
             Prepared using the Tamkin Foundation Computer Network
                              MPC at CFA.HARVARD.EDU
            URL https://www.minorplanetcenter.net/    ISSN 1523-6714
                                    2023 TE1                                    
Observations:
     K23T01E*1C2023 10 05.28446500 36 45.673+08 23 29.58         20.62GVET050G96
     K23T01E 1C2023 10 05.29016000 36 41.105+08 23 54.96         20.15GVET050G96
     K23T01E 1C2023 10 05.29585200 36 36.655+08 24 20.48         20.74GVET050G96
     K23T01E 1C2023 10 05.30152700 36 32.094+08 24 46.44         20.88GVET050G96
     K23T01E  C2023 10 05.35611700 35 48.232+08 28 50.57         20.7 GVET050H01
     K23T01E  C2023 10 05.35916400 35 45.794+08 29 04.33         21.0 GVET050H01
     K23T01E  C2023 10 05.37246700 35 35.145+08 30 04.33         20.4 GVET050H01
     K23T01E  C2023 10 05.37706400 35 31.461+08 30 25.10         20.4 GVET050H01
     K23T01E KC2023 10 05.45485400 34 29.197+08 36 18.72         20.77GVET050I52
     K23T01E KC2023 10 05.45589300 34 28.366+08 36 23.76         20.63GVET050I52
     K23T01E KC2023 10 05.46129800 34 24.017+08 36 48.24         20.74GVET050I52
     K23T01E  C2023 10 06.22845100 23 48.941+09 37 55.65         20.3 GVET050H01
     K23T01E  C2023 10 06.23304400 23 44.776+09 38 18.60         20.1 GVET050H01
     K23T01E  C2023 10 06.24132400 23 37.276+09 38 59.92         20.2 GVET050H01
     K23T01E  C2023 10 06.24950700 23 29.862+09 39 40.67         20.1 GVET050H01
     K23T01E KB2023 10 06.90729500 13 23.02 +10 35 54.4          20.5 GVET050I93
     K23T01E KB2023 10 06.91468200 13 15.75 +10 36 34.1          20.5 GVET050I93
     K23T01E KB2023 10 06.92197100 13 08.52 +10 37 12.8          20.5 GVET050I93
Observer details:
G96 Mt. Lemmon Survey.  Observer G. J. Leonard.  Measurers E. C. Beshore, D.
    Fay, J. B. Fazekas, D. C. Fuls, A. R. Gibbs, A. D. Grauer, H. Groeller, J.
    K. Hogan, R. A. Kowalski, S. M. Larson, G. J. Leonard, D. Rankin, R. L.
    Seaman, F. C. Shelly, K. W. Wierzchos.  1.5-m reflector + 10K CCD.
H01 Magdalena Ridge Observatory, Socorro.  Observers W. H. Ryan, E. V. Ryan.
    Measurer W. H. Ryan.  2.4-m f/8.9 Ritchey-Chretien + CCD.
I52 Steward Observatory, Mt. Lemmon Station.  Observer D. Rankin.  Measurers
    E. C. Beshore, D. Fay, J. B. Fazekas, D. C. Fuls, A. R. Gibbs, A. D.
    Grauer, H. Groeller, J. K. Hogan, R. A. Kowalski, S. M. Larson, G. J.
    Leonard, D. Rankin, R. L. Seaman, F. C. Shelly, K. W. Wierzchos.  1.0-m
    prime focus + CCD.
I93 St Pardon de Conques.  Observer F. Losse.  0.40-m f/3.7 reflector + CMO.
Orbital elements:
2023 TE1                                                 Earth MOID = 0.0657 AU
Epoch 2023 Sept. 13.0 TT = JDT 2460200.5                MPC                     
M 276.68812              (2000.0)            P               Q                  
n   0.90713439     Peri.  132.62508     -0.78831068     -0.61133441             
a   1.0568701      Node    10.37097     +0.38758297     -0.58118490             
e   0.5904504      Incl.   22.72550     +0.47785532     -0.53711670             
P   1.09           H   24.64          G   0.15           U   9                  
Residuals in seconds of arc
231005 G96  0.0   0.1+    231005 H01  0.1-  0.0     231006 H01  0.0   0.0
231005 G96  0.5-  0.1-    231005 H01  0.2-  0.1+    231006 H01  0.1-  0.0
231005 G96  0.7+  0.3-    231005 I52  0.1+  0.2-    231006 H01  0.0   0.1-
231005 G96  0.1+  0.1+    231005 I52  0.2+  0.1+    231006 I93  0.2-  0.1+
231005 H01  0.2-  0.0     231005 I52  0.0   0.1+    231006 I93  0.2+  0.4+
231005 H01  0.2-  0.0     231006 H01  0.1+  0.0     231006 I93  0.1+  0.2+
Ephemeris:
2023 TE1                 a,e,i = 1.06, 0.59, 23                  q = 0.4328
Date    TT    R. A. (2000) Decl.     Delta      r    Elong.  Phase     V
2023 09 06    02 16 19.1 -03 11 40   0.4719  1.3613   130.2    34.5    25.1
...
2023 09 21    02 00 55.5 -00 34 19   0.2827  1.2517   147.4    25.6    23.6
...
2023 09 29    01 31 20.0 +02 47 18   0.1915  1.1856   162.0    15.1    22.3
...
2023 10 05    00 40 21.0 +08 02 54   0.1322  1.1322   176.4     3.2    20.8
2023 10 06    00 27 06.2 +09 19 39   0.1237  1.1230   173.7     5.6    20.8
2023 10 07    00 11 52.3 +10 44 47   0.1158  1.1138   169.4     9.5    20.8
...
2023 10 13    21 48 09.1 +20 33 31   0.08797 1.0561   129.4    46.9    21.3
...
2023 10 21    18 22 41.9 +21 07 21   0.1196  0.9740    76.1    97.0    23.5
...
2023 11 05    16 22 36.7 +13 30 54   0.2613  0.8049    38.8   129.5    26.9
A. U. Tomatic                (C) Copyright 2023 MPC           M.P.E.C. 2023-T50
    
    
More information about the Iaude
mailing list